Content
SEND FEEDBACK

Daily
Averages
Monthly
Summary
United States of America

MAURICEVILLE, TEXAS


Home > North America > United States > Texas
Elevation: 6 meters     Latitude: 30 14N     Longitude: 093 44W

WEATHER
 
SELECT A DAY
Number of Records: 107,977;   Date Range: 8/25/05 - 7/21/14
 
SHARE

PRINT THIS DATA

[ ← Previous Day ]
WEATHER ALMANAC - 24 APRIL, 2013
[ Next Day → ]
[ °F ]   °C
Weather ElementAverageHighLow
Temperature16.9 °C22.5 °C (12:35 am)10.1 °C (7:35 am)
Dewpoint12.6 °C21.2 °C (4:15 am)8.7 °C (9:55 am)
Humidity77 %95 % (5:35 am)54 % (4:35 pm)
Barometer1020 hPa1023.7 hPa (10:35 pm)1014.6 hPa (3:55 am)
Wind Speed13.2 km/h25.9 km/h (11:55 am)
Wind Gust42.6 km/h (6:55 am)
Weather ElementAverage
Visibility14.6 km
Wind DirectionS (177 °)

Weather ElementTotal
Precipitation2.03 mm
Heating Degree Days2.1 (Base 18.3)
Growing Degree Days6.3 (Base 10)
Averaged from 67 records on 24 April, 2013
WEATHER CONDITIONS BREAKOUT
WIND DIRECTION BREAKOUT
WEATHER BY HOUR - 24 APRIL, 2013
[ °F ]   °C
Local TimeTemperatureDewpointHumidityBarometerVisibilityWind DirectionWind SpeedGust SpeedPrecipitationEventsConditions
12:35 AM22.5 °C21.1 °C92 %1016.3 hPa16.1 kmCalmOvercast
12:55 AM22.5 °C21 °C91 %1015.9 hPa11.3 kmCalmOvercast
1:15 AM22.3 °C21 °C92 %1015.9 hPa11.3 kmCalmOvercast
1:35 AM22.2 °C21 °C93 %1015.9 hPa11.3 kmCalmOvercast
1:55 AM22.3 °C21.1 °C93 %1015.6 hPa11.3 kmCalmOvercast
2:15 AM22.3 °C21.1 °C93 %1015.6 hPa11.3 kmCalmOvercast
2:35 AM22.3 °C21.1 °C93 %1015.2 hPa11.3 kmCalmOvercast
2:55 AM22.3 °C21.1 °C93 %1015.2 hPa11.3 kmCalmOvercast
3:15 AM22.3 °C21.1 °C93 %1015.2 hPa11.3 kmCalmOvercast
3:35 AM22.3 °C21.1 °C93 %1015.2 hPa11.3 kmSSE (150°)9.3 km/hOvercast
3:55 AM22.3 °C21.1 °C93 %1014.6 hPa11.3 kmSSE (160°)16.7 km/h27.8 km/hOvercast
4:15 AM22.3 °C21.2 °C93 %1014.6 hPa11.3 kmSouth (170°)16.7 km/h25.9 km/hThunderstormOvercast
4:35 AM22.2 °C21.1 °C93 %1014.6 hPa11.3 kmSouth (180°)22.2 km/h31.5 km/hThunderstormOvercast
5:15 AM15.5 °C14.5 °C94 %1016.6 hPa8 kmWNW (290°)20.4 km/h31.5 km/h0.25 mmDrizzle
5:35 AM14.8 °C14 °C95 %1016.9 hPa11.3 kmWNW (300°)11.1 km/h29.6 km/h0.51 mmRain-ThunderstormLight Thunderstorms and Rain
5:55 AM14 °C13 °C94 %1017.6 hPa16.1 kmNW (320°)5.6 km/h31.5 km/h0.51 mmOvercast
6:15 AM13.1 °C12.1 °C94 %1017.9 hPa16.1 kmNW (310°)20.4 km/h29.6 km/hOvercast
6:35 AM12.2 °C11.2 °C94 %1018.6 hPa11.3 kmNW (310°)22.2 km/h38.9 km/hOvercast
6:55 AM11 °C9.8 °C92 %1019.3 hPa11.3 kmNW (320°)24.1 km/h42.6 km/hOvercast
7:15 AM10.4 °C9.5 °C94 %1019.6 hPa8 kmNW (320°)14.8 km/h37 km/hThunderstormOvercast
7:35 AM10.1 °C9.2 °C94 %1020 hPa8 kmNNW (330°)20.4 km/h33.3 km/h0.25 mmDrizzle
7:55 AM10.3 °C9.3 °C94 %1020.3 hPa16.1 kmNNW (330°)18.5 km/h29.6 km/h0.51 mmOvercast
8:15 AM10.5 °C9.4 °C93 %1020.7 hPa16.1 kmNNW (330°)16.7 km/h29.6 km/hOvercast
8:35 AM10.7 °C9.5 °C92 %1020.7 hPa16.1 kmNNW (330°)20.4 km/h29.6 km/hOvercast
8:55 AM10.9 °C9.2 °C89 %1020.7 hPa16.1 kmNNW (340°)18.5 km/h35.2 km/hOvercast
9:15 AM11.5 °C9.6 °C88 %1021 hPa16.1 kmNNW (330°)16.7 km/h27.8 km/hOvercast
9:35 AM11.5 °C9 °C85 %1021.3 hPa16.1 kmNNW (330°)24.1 km/h33.3 km/hOvercast
9:55 AM11.5 °C8.7 °C83 %1021.7 hPa16.1 kmNorth (350°)24.1 km/h33.3 km/hOvercast
10:15 AM12 °C9.3 °C84 %1022 hPa16.1 kmNNW (330°)20.4 km/h27.8 km/hOvercast
10:35 AM12.1 °C9.4 °C84 %1022 hPa16.1 kmNorth (350°)16.7 km/hOvercast
10:55 AM12.1 °C9.1 °C82 %1022 hPa16.1 kmNorth (350°)18.5 km/h29.6 km/hOvercast
11:15 AM13.2 °C9.5 °C78 %1022 hPa16.1 kmNorth (350°)18.5 km/h37 km/hOvercast
11:35 AM14.2 °C9.5 °C73 %1022 hPa16.1 kmNorth (360°)14.8 km/h35.2 km/hOvercast
11:55 AM14.9 °C9.8 °C72 %1021.7 hPa16.1 kmNNW (340°)25.9 km/h35.2 km/hMostly Cloudy
12:15 PM15.2 °C9.8 °C70 %1021.7 hPa16.1 kmNorth (350°)18.5 km/h29.6 km/hClear
12:35 PM15.8 °C10 °C68 %1021.7 hPa16.1 kmNorth (350°)14.8 km/h27.8 km/hClear
12:55 PM16.8 °C10.1 °C65 %1021.3 hPa16.1 kmNNE (20°)20.4 km/h31.5 km/hScattered Clouds
1:15 PM16.7 °C9.9 °C64 %1021.3 hPa16.1 kmNorth (10°)16.7 km/h29.6 km/hClear
1:35 PM17.1 °C9.8 °C62 %1021.3 hPa16.1 kmNNE (20°)24.1 km/h31.5 km/hClear
1:55 PM17.6 °C10.2 °C62 %1021.3 hPa16.1 kmNorth (10°)16.7 km/h27.8 km/hClear
2:15 PM18.5 °C10.7 °C60 %1021 hPa16.1 kmNNW (340°)16.7 km/h25.9 km/hClear
2:35 PM18.6 °C10.5 °C59 %1021 hPa16.1 kmNNE (20°)20.4 km/hClear
2:55 PM19.1 °C10.8 °C59 %1021 hPa16.1 kmNNW (340°)16.7 km/h25.9 km/hClear
3:15 PM19.4 °C10.5 °C56 %1020.7 hPa16.1 kmNNW (340°)18.5 km/h25.9 km/hClear
3:35 PM19.5 °C10.7 °C57 %1020.3 hPa16.1 kmNorth (10°)16.7 km/h27.8 km/hClear
3:55 PM19.4 °C10.6 °C57 %1019.6 hPa16.1 kmNorth (360°)16.7 km/h29.6 km/hMostly Cloudy
4:15 PM19.5 °C10.7 °C57 %1019.6 hPa16.1 kmNorth (360°)14.8 km/h27.8 km/hOvercast
4:35 PM20 °C10.5 °C54 %1020 hPa16.1 kmNNE (30°)18.5 km/hScattered Clouds
4:55 PM19.9 °C10.4 °C54 %1020.3 hPa16.1 kmNorth (10°)16.7 km/h25.9 km/hScattered Clouds
5:15 PM20 °C10.6 °C55 %1020.3 hPa16.1 kmNorth (360°)9.3 km/hScattered Clouds
5:35 PM19.7 °C10.3 °C55 %1020.3 hPa16.1 kmNorth (10°)13 km/hClear
5:55 PM19.8 °C10.4 °C55 %1020.3 hPa16.1 kmNE (40°)18.5 km/h25.9 km/hClear
6:15 PM19.5 °C10.6 °C56 %1020.3 hPa16.1 kmNNE (30°)14.8 km/hClear
6:35 PM19.1 °C10.8 °C59 %1020.3 hPa16.1 kmNorth (360°)11.1 km/hScattered Clouds
6:55 PM18.8 °C10.9 °C60 %1021 hPa16.1 kmNorth (360°)9.3 km/hMostly Cloudy
7:15 PM18.3 °C10.7 °C61 %1021 hPa16.1 kmNNE (20°)9.3 km/hThunderstormOvercast
7:35 PM17.8 °C11.1 °C65 %1021.3 hPa16.1 kmNorth (360°)5.6 km/hOvercast
7:55 PM17.5 °C11.1 °C66 %1021.7 hPa16.1 kmCalmMostly Cloudy
8:15 PM17.1 °C11.5 °C70 %1022 hPa16.1 kmCalmMostly Cloudy
8:35 PM16.9 °C11.6 °C71 %1022.4 hPa16.1 kmCalmMostly Cloudy
8:55 PM16.4 °C11.6 °C73 %1022.4 hPa16.1 kmCalmScattered Clouds
10:15 PM15.5 °C11 °C75 %1023.4 hPa16.1 kmNNE (30°)11.1 km/hScattered Clouds
10:35 PM15.4 °C10.7 °C74 %1023.7 hPa16.1 kmNE (40°)13 km/hMostly Cloudy
10:55 PM15.2 °C10.8 °C75 %1023.7 hPa16.1 kmCalmOvercast
11:15 PM15 °C10.8 °C76 %1023.7 hPa16.1 kmNNE (30°)14.8 km/hOvercast
11:35 PM14.9 °C10.7 °C76 %1023.7 hPa16.1 kmNNE (30°)13 km/hOvercast
11:55 PM14.6 °C10.6 °C77 %1023.7 hPa16.1 kmNE (40°)16.7 km/hMostly Cloudy
Hourly data recorded from KORG, located 0 kilometers away from Mauriceville, Texas







STORIES FROM OUR PARTNERS